User: anonymous   Login
Location: Unspecified
(0.0000°N, 0.0000°E)
Time: 14:31:54
(UTC+00:00)
Language:

Courier 1B - Orbit

View from above orbital plane
View from above orbital plane
View from above satellite
View from above satellite

Ground track
Ground track

The orbit data is extracted from the following two-line orbital elements,

1    58U 60013A   19200.82512464 +.00000102 +00000-0 +21791-4 0  9994
2    58 028.3294 347.2088 0164956 187.1595 172.6580 13.46317955893623
Epoch (UTC): 19 July 2019 19:48:10
Eccentricity: 0.0164956
inclination: 28.3294°
perigee height: 963 km
apogee height: 1209 km
right ascension of ascending node: 347.2088°
argument of perigee: 187.1595°
revolutions per day: 13.46317955
mean anomaly at epoch: 172.6580°
orbit number at epoch: 89362

The dashed part of the orbit path shows where the satellite is in the earth's shadow,  

DLR